Weather History for Homerville, GA

Change the Weather History Date:

Friday, February 22, 2013

  Actual Average Record
Temperature  
Mean Temperature 62 °F -  
Max Temperature 69 °F 69 °F 82 °F (1961)
Min Temperature 55 °F 45 °F 27 °F (1958)
Degree Days  
Heating Degree Days 3    
Growing Degree Days 12 (Base 50)    
Moisture  
Dew Point 60 °F    
Average Humidity 93    
Maximum Humidity 100    
Minimum Humidity 72    
Precipitation  
Precipitation 0.00 in - - ()
Sea Level Pressure  
Sea Level Pressure 30.05 in    
Wind  
Wind Speed 4 mph (SE)    
Max Wind Speed 9 mph    
Max Gust Speed -    
Visibility 8 miles    
Events Rain    
Averages and records for this station are not official NWS values.
T = Trace of Precipitation, MM = Missing Value Source: NWS Daily Summary

Daily Weather History Graph

Daily Weather History Graph

Search for Another Location

Airport:

Trip Planner

Search our weather history database for the weather conditions in past years. The results will help you decide how hot, cold, wet, or windy it might be!

Date:

Astronomy

Feb. 22, 2013 Rise Set
Actual Time 7:05 AM EST 6:24 PM EST
Civil Twilight 6:40 AM EST 6:48 PM EST
Nautical Twilight 6:12 AM EST 7:17 PM EST
Astronomical Twilight 5:44 AM EST 7:45 PM EST
Moon 3:42 PM EST (2/22) 4:41 AM EST (2/22)
Length of Visible Light 12h 08m
Length of Day
11h 19m
Waxing Gibbous, 90% of the Moon is Illuminated
Feb 22
Waxing Gibbous
Feb 25
Full
Mar 4
Last Quarter
Mar 11
New
Mar 19
First Quarter

Hourly Weather History & Observations

Time (EST) Temp. Dew Point Humidity Pressure Visibility Wind Dir Wind Speed Gust Speed Precip Events Conditions
12:15 AM 57.2 °F 48.2 °F 72% 30.07 in 10.0 mi ESE 3.5 mph - N/A   Mostly Cloudy
12:35 AM 55.4 °F 48.2 °F 77% 30.06 in 10.0 mi ESE 3.5 mph - N/A   Overcast
12:55 AM 57.2 °F 50.0 °F 77% 30.06 in 10.0 mi ESE 3.5 mph - N/A   Overcast
1:15 AM 55.4 °F 50.0 °F 82% 30.06 in 10.0 mi ESE 3.5 mph - N/A   Mostly Cloudy
1:35 AM 55.4 °F 50.0 °F 82% 30.05 in 10.0 mi ESE 3.5 mph - N/A   Mostly Cloudy
1:55 AM 55.4 °F 50.0 °F 82% 30.05 in 10.0 mi SE 5.8 mph - N/A   Overcast
2:15 AM 57.2 °F 51.8 °F 82% 30.04 in 10.0 mi SE 3.5 mph - N/A   Overcast
2:35 AM 57.2 °F 51.8 °F 82% 30.05 in 10.0 mi ESE 4.6 mph - N/A   Overcast
2:55 AM 57.2 °F 51.8 °F 82% 30.04 in 10.0 mi ESE 3.5 mph - N/A   Overcast
3:15 AM 57.2 °F 51.8 °F 82% 30.03 in 10.0 mi ESE 3.5 mph - N/A   Mostly Cloudy
3:35 AM 55.4 °F 53.6 °F 94% 30.03 in 10.0 mi ESE 3.5 mph - N/A   Clear
3:55 AM 55.4 °F 53.6 °F 94% 30.03 in 10.0 mi ESE 3.5 mph - N/A   Clear
4:15 AM 57.2 °F 53.6 °F 88% 30.02 in 10.0 mi ESE 3.5 mph - N/A   Mostly Cloudy
4:35 AM 57.2 °F 55.4 °F 94% 30.03 in 10.0 mi ESE 4.6 mph - N/A   Mostly Cloudy
4:55 AM 57.2 °F 55.4 °F 94% 30.03 in 10.0 mi ESE 3.5 mph - N/A   Scattered Clouds
5:15 AM 57.2 °F 55.4 °F 94% 30.03 in 10.0 mi Calm Calm - N/A   Scattered Clouds
5:35 AM 57.2 °F 55.4 °F 94% 30.04 in 10.0 mi Calm Calm - N/A   Overcast
5:55 AM 59.0 °F 55.4 °F 88% 30.04 in 10.0 mi ESE 4.6 mph - N/A   Overcast
6:15 AM 59.0 °F 55.4 °F 88% 30.05 in 10.0 mi ESE 3.5 mph - N/A   Overcast
6:35 AM 57.2 °F 55.4 °F 94% 30.05 in 10.0 mi ESE 4.6 mph - N/A   Mostly Cloudy
6:55 AM 57.2 °F 55.4 °F 94% 30.05 in 10.0 mi ESE 4.6 mph - N/A   Scattered Clouds
7:15 AM 57.2 °F 57.2 °F 100% 30.06 in 10.0 mi SE 4.6 mph - N/A   Scattered Clouds
7:35 AM 59.0 °F 59.0 °F 100% 30.06 in 10.0 mi SE 3.5 mph - N/A   Mostly Cloudy
7:55 AM 59.0 °F 59.0 °F 100% 30.07 in 10.0 mi SSE 4.6 mph - N/A   Mostly Cloudy
8:15 AM 59.0 °F 59.0 °F 100% 30.05 in 10.0 mi SE 5.8 mph - N/A   Mostly Cloudy
8:35 AM 60.8 °F 60.8 °F 100% 30.07 in 10.0 mi SSE 8.1 mph - N/A   Scattered Clouds
8:55 AM 62.6 °F 60.8 °F 94% 30.06 in 10.0 mi SSE 9.2 mph - N/A   Clear
9:15 AM 62.6 °F 60.8 °F 94% 30.07 in 10.0 mi South 6.9 mph - N/A   Clear
9:35 AM 64.4 °F 60.8 °F 88% 30.06 in 10.0 mi South 8.1 mph - N/A   Clear
9:55 AM 66.2 °F 62.6 °F 88% 30.05 in 10.0 mi SSE 5.8 mph - N/A   Clear
10:15 AM 68.0 °F 62.6 °F 83% 30.06 in 10.0 mi SSE 4.6 mph - N/A   Clear
10:35 AM 68.0 °F 62.6 °F 83% 30.07 in 10.0 mi SSE 3.5 mph - N/A   Clear
10:55 AM 68.0 °F 62.6 °F 83% 30.06 in 10.0 mi SE 4.6 mph - N/A   Clear
11:15 AM 68.0 °F 62.6 °F 83% 30.08 in 10.0 mi South 4.6 mph - N/A   Clear
11:35 AM 69.8 °F 62.6 °F 78% 30.08 in 10.0 mi Calm Calm - N/A   Mostly Cloudy
11:55 AM 69.8 °F 64.4 °F 83% 30.09 in 10.0 mi Calm Calm - N/A   Overcast
12:15 PM 69.8 °F 64.4 °F 83% 30.08 in 10.0 mi Calm Calm - N/A   Overcast
12:35 PM 69.8 °F 64.4 °F 83% 30.08 in 10.0 mi Calm Calm - N/A   Overcast
12:55 PM 69.8 °F 64.4 °F 83% 30.08 in 10.0 mi Calm Calm - N/A   Overcast
1:15 PM 69.8 °F 64.4 °F 83% 30.09 in 10.0 mi NNW 4.6 mph - N/A   Overcast
1:35 PM 68.0 °F 64.4 °F 88% 30.09 in 10.0 mi NNW 3.5 mph - N/A Rain Light Rain
1:55 PM 68.0 °F 64.4 °F 88% 30.07 in 10.0 mi Calm Calm - N/A Rain Light Rain
2:15 PM 66.2 °F 64.4 °F 94% 30.08 in 5.0 mi Calm Calm - N/A Rain Light Rain
2:35 PM 64.4 °F 64.4 °F 100% 30.08 in 7.0 mi Calm Calm - N/A Rain Light Rain
2:55 PM 64.4 °F 64.4 °F 100% 30.07 in 5.0 mi Calm Calm - N/A Rain Light Rain
3:15 PM 64.4 °F 64.4 °F 100% 30.04 in 7.0 mi SE 5.8 mph - N/A Rain Light Rain
3:35 PM 64.4 °F 64.4 °F 100% 30.02 in 10.0 mi SSE 4.6 mph - N/A   Light Drizzle
3:55 PM 64.4 °F 64.4 °F 100% 30.03 in 7.0 mi SSW 3.5 mph - N/A Rain Light Rain
4:15 PM 64.4 °F 64.4 °F 100% 30.04 in 10.0 mi SSW 4.6 mph - N/A Rain Light Rain
4:35 PM 64.4 °F 64.4 °F 100% 30.03 in 10.0 mi South 5.8 mph - N/A Rain Light Rain
4:55 PM 64.4 °F 64.4 °F 100% 30.02 in 10.0 mi South 4.6 mph - N/A Rain Light Rain
5:15 PM 64.4 °F 64.4 °F 100% 30.03 in 10.0 mi South 5.8 mph - N/A Rain Light Rain
5:35 PM 64.4 °F 64.4 °F 100% 30.03 in 5.0 mi SSE 4.6 mph - N/A Rain Rain
5:55 PM 64.4 °F 64.4 °F 100% 30.04 in 4.0 mi South 5.8 mph - N/A Rain Rain
6:15 PM 64.4 °F 64.4 °F 100% 30.05 in 5.0 mi SSW 4.6 mph - N/A Rain Rain
6:35 PM 62.6 °F 62.6 °F 100% 30.06 in 7.0 mi SSW 4.6 mph - N/A Rain Rain
6:55 PM 62.6 °F 62.6 °F 100% 30.06 in 10.0 mi South 5.8 mph - N/A Rain Rain
7:15 PM 62.6 °F 62.6 °F 100% 30.06 in 10.0 mi South 4.6 mph - N/A Rain Light Rain
7:35 PM 62.6 °F 62.6 °F 100% 30.04 in 7.0 mi Calm Calm - N/A Rain Light Rain
7:55 PM 62.6 °F 62.6 °F 100% 30.05 in 10.0 mi SSE 3.5 mph - N/A Rain Light Rain
8:15 PM 62.6 °F 62.6 °F 100% 30.06 in 7.0 mi South 3.5 mph - N/A Rain Rain
8:35 PM 62.6 °F 62.6 °F 100% 30.06 in 5.0 mi South 4.6 mph - N/A Rain Rain
8:55 PM 62.6 °F 62.6 °F 100% 30.05 in 4.0 mi SSE 3.5 mph - N/A Rain Rain
9:15 PM 62.6 °F 62.6 °F 100% 30.06 in 4.0 mi South 3.5 mph - N/A Rain Rain
9:35 PM 62.6 °F 62.6 °F 100% 30.05 in 4.0 mi Calm Calm - N/A Rain Heavy Rain
9:55 PM 62.6 °F 62.6 °F 100% 30.05 in 3.0 mi Calm Calm - N/A Rain Heavy Rain
10:15 PM 62.6 °F 62.6 °F 100% 30.03 in 4.0 mi ESE 3.5 mph - N/A Rain Rain
10:35 PM 62.6 °F 62.6 °F 100% 30.03 in 7.0 mi SSE 3.5 mph - N/A Rain Light Rain
10:55 PM 62.6 °F 62.6 °F 100% 30.03 in 7.0 mi Calm Calm - N/A Rain Rain
11:15 PM 62.6 °F 62.6 °F 100% 30.02 in 2.5 mi Calm Calm - N/A Rain Rain
11:35 PM 62.6 °F 62.6 °F 100% 30.01 in 2.0 mi East 3.5 mph - N/A Rain Rain
11:55 PM 62.6 °F 62.6 °F 100% 30.00 in 3.0 mi ESE 5.8 mph - N/A Rain Heavy Rain